Temp
18 18 18 18 18 18 18 18 18 18 18 18 18 19 19 19 19 19 19 19 20 20 20 20 20 20 20 20 20 20 19 20 20 19 19 18 17 18 18 19 19 19 20 20 21 21 22 22 22 21 23 22 21 21 20 19 18 20 22 21 21 22 22 22 22 21 21 22 20 15 15 18 19 16 15 15 15 16 15 15 16 15 13 12 10 8 8 8
18 18 18 18 18 18 18 18 18 18 18 18 18 19 19 19 19 19 19 19 20 20 20 20 20 20 20 20 20 20 20 20 20 19 18 17 18 18 19 19 19 20 20 20 20 21 22 22 21 21 23 22 20 20 20 19 19 21 21 21 22 22 22 21 21 21 20 21 19 16 15 16 18 17 16 17 18 16 16 17 16 15 14 11 9 8 8 8
18 18 18 18 18 18 18 18 18 18 18 18 18 18 19 19 19 19 19 19 20 20 20 20 20 20 20 20 20 20 20 20 21 19 18 18 18 19 19 19 19 20 20 20 20 20 21 21 20 21 22 22 20 20 21 20 19 21 20 21 22 21 20 19 19 19 18 18 19 18 14 14 16 16 16 18 18 17 18 19 17 17 17 14 10 9 9 9
18 18 18 18 18 18 18 18 18 18 18 18 18 19 19 19 19 19 19 20 20 20 20 20 20 20 20 20 20 20 20 21 20 18 18 18 18 19 19 19 19 20 20 20 20 20 20 20 20 21 22 22 20 19 21 20 19 20 20 22 21 18 20 19 17 17 16 15 18 17 14 15 15 15 16 17 19 20 20 19 18 19 19 16 11 10 10 10
18 18 18 18 18 18 18 18 18 18 19 19 19 19 19 19 19 19 19 20 20 20 20 20 20 20 20 20 20 20 20 21 20 17 18 18 19 19 19 19 20 20 20 20 20 19 20 20 21 21 21 21 20 20 21 18 18 20 20 20 19 17 20 18 15 14 13 14 16 16 16 16 15 15 16 16 19 19 17 15 15 16 16 15 12 11 10 11
18 18 18 18 18 18 18 18 18 19 19 19 19 19 19 19 19 20 20 20 20 19 20 20 20 20 20 20 20 20 21 21 18 18 18 18 19 19 19 19 20 20 19 20 19 19 20 21 21 21 21 21 20 20 20 17 17 20 20 18 16 16 18 17 14 13 12 15 16 16 16 15 15 16 14 14 17 15 13 12 12 12 12 13 13 11 11 11
18 18 18 18 18 18 18 18 19 19 19 19 19 19 19 19 19 20 19 20 19 19 19 20 20 20 20 20 20 20 21 20 18 18 18 18 19 19 19 19 19 19 19 20 20 20 20 21 22 21 21 21 20 20 18 16 17 19 20 18 16 14 16 16 13 12 12 14 15 14 14 15 17 16 13 14 15 13 12 11 10 11 10 11 12 11 11 11
18 18 18 18 18 18 18 19 19 19 19 19 19 19 19 19 20 20 20 20 19 19 19 19 20 20 20 20 20 20 20 18 18 18 18 18 19 19 19 19 19 19 19 20 19 20 20 20 21 19 21 20 19 19 16 17 18 19 19 18 15 14 15 14 12 12 12 13 12 12 15 16 15 14 14 14 13 11 11 10 10 10 10 11 10 10 11 10
18 18 18 19 19 19 19 19 19 19 19 19 19 19 19 19 20 20 20 20 20 20 19 19 20 20 20 20 20 21 19 17 17 17 18 18 18 18 18 19 19 19 19 19 18 19 20 20 19 19 21 19 18 18 16 18 20 18 18 17 16 16 15 13 13 12 11 12 12 13 16 15 12 12 14 13 11 10 10 10 10 10 10 9 9 9 10 10
18 18 19 19 19 19 19 20 20 20 20 20 20 19 20 20 20 20 20 20 20 20 20 20 20 20 20 20 20 21 18 17 17 17 18 18 18 18 18 19 19 19 19 18 18 19 20 20 18 18 19 18 17 17 16 18 18 16 16 16 15 15 13 13 13 12 11 12 12 14 16 14 11 13 14 12 10 10 10 10 9 9 9 8 8 8 9 9
18 19 19 19 19 20 20 20 20 20 20 20 20 20 20 20 20 20 20 20 20 20 20 19 20 20 20 20 21 20 17 17 17 17 17 18 18 18 18 18 18 18 19 18 18 18 19 18 17 18 19 19 18 16 15 16 15 14 15 16 16 14 13 13 14 12 12 13 12 14 15 13 13 13 12 10 9 10 9 9 8 8 8 7 8 8 8 8
19 19 19 19 19 20 20 20 20 20 20 20 20 20 20 20 20 20 20 20 20 20 19 19 20 20 20 20 20 18 17 17 17 17 17 18 18 18 18 18 18 18 18 19 18 17 17 17 17 19 18 18 18 17 16 14 14 14 14 17 18 17 16 14 14 12 12 14 12 12 15 14 13 11 9 9 9 10 9 8 8 7 7 7 7 6 7 7
18 19 19 19 20 20 20 20 20 20 20 20 20 20 21 21 21 20 20 20 20 20 19 20 19 19 20 20 18 17 17 17 17 17 17 18 18 18 18 17 18 17 18 18 18 17 17 17 18 18 16 18 18 16 15 13 14 15 15 17 18 19 18 15 13 12 13 14 11 13 18 16 12 10 9 8 8 9 10 8 7 7 6 6 6 6 5 5
19 19 19 20 20 20 21 20 20 20 21 20 20 21 21 21 21 20 20 20 20 20 20 20 19 20 20 19 17 18 17 17 17 17 17 17 18 18 17 17 17 17 17 18 17 17 16 16 17 17 15 15 16 14 15 15 15 16 16 16 18 19 19 15 12 13 15 14 11 14 19 17 12 10 9 8 8 9 9 8 7 7 6 6 5 5 4 4
19 20 20 20 20 21 21 21 21 21 21 21 20 21 21 21 21 20 20 20 19 19 19 19 19 20 20 18 18 18 17 17 17 16 16 16 16 17 17 16 17 17 17 17 17 17 16 17 17 17 15 13 14 16 18 18 17 17 17 18 18 18 19 16 12 13 15 14 13 15 18 16 10 8 8 7 8 9 8 7 7 6 6 5 5 4 4 3
20 20 20 21 21 21 21 21 21 21 21 21 20 20 20 21 20 20 20 19 19 19 19 19 19 20 20 19 18 18 17 17 17 16 16 15 15 16 16 16 16 16 16 16 16 16 16 17 15 14 15 15 16 18 19 19 18 17 18 19 18 17 18 18 13 11 12 14 15 16 17 15 10 7 7 7 8 8 7 6 6 6 5 5 4 4 3 3
20 20 20 21 21 21 21 21 21 21 21 21 20 20 20 20 20 20 19 19 19 19 19 19 19 19 20 18 18 18 16 16 16 16 15 15 15 15 16 16 16 16 16 16 16 16 17 16 13 13 17 17 16 18 19 20 20 18 18 18 17 16 16 17 15 12 12 14 15 15 15 12 8 7 7 7 8 7 7 6 5 5 4 4 3 3 2 1
20 20 20 21 21 21 21 21 21 21 21 21 20 20 20 20 20 19 19 19 19 19 20 19 19 20 19 18 17 16 15 15 16 16 15 15 15 15 15 15 15 16 17 17 17 17 17 16 16 18 18 17 17 18 19 18 17 17 17 17 17 16 15 16 16 13 12 14 14 15 14 10 7 6 6 6 7 6 5 5 4 4 3 3 2 2 1 1
20 20 20 21 21 21 21 21 21 21 21 21 20 19 20 20 20 20 18 18 18 19 19 18 17 19 18 17 16 15 15 15 16 16 15 14 15 15 15 15 15 17 18 18 18 16 16 17 18 18 17 16 16 15 16 16 15 15 15 15 16 16 16 16 15 12 10 13 14 13 11 8 6 6 5 6 6 6 5 4 4 3 3 2 2 1 1 0
20 20 20 20 21 21 21 21 20 21 21 21 20 19 20 20 20 20 17 15 14 14 16 16 15 16 17 16 15 15 16 16 16 16 15 14 14 14 15 15 16 18 17 17 17 14 14 17 17 16 15 14 13 12 12 13 13 14 14 15 15 15 16 15 14 11 10 12 13 10 9 7 6 5 5 5 6 5 4 4 3 3 3 2 2 1 1 0
19 20 20 20 21 21 21 20 20 20 21 21 21 20 19 18 19 19 16 14 12 11 14 14 13 15 15 14 14 13 15 16 17 16 15 15 15 16 17 17 18 18 15 13 14 13 14 16 14 13 12 11 11 10 11 12 12 13 14 15 15 15 15 14 12 11 11 13 13 10 8 6 5 5 5 5 5 4 4 4 3 3 2 2 1 1 1 1
20 20 20 20 20 20 20 20 20 20 20 21 20 17 16 15 16 17 16 17 14 11 13 13 13 14 14 14 13 12 14 16 17 17 15 15 16 17 16 17 17 17 14 13 15 16 16 15 13 11 10 10 10 10 11 12 13 14 14 15 15 15 15 13 11 11 11 13 13 11 9 6 4 4 4 4 3 3 3 3 3 2 2 2 1 1 1 1
20 20 20 20 20 20 20 20 20 20 20 20 18 15 14 15 15 15 16 19 17 14 14 15 14 15 15 15 14 13 15 15 15 16 14 14 16 14 14 16 16 15 14 15 17 17 16 14 11 9 9 11 12 12 12 14 14 14 15 15 15 14 14 14 12 11 12 12 12 12 9 6 5 5 4 4 3 2 2 2 2 2 1 1 1 1 1 0
20 20 20 20 20 21 20 20 20 19 18 18 16 14 15 15 15 15 16 17 17 16 15 14 14 15 15 14 14 14 15 14 14 15 13 13 14 14 14 13 15 16 14 13 15 16 14 12 9 9 10 12 13 13 13 14 16 14 13 14 14 13 13 13 12 12 12 11 10 11 11 8 6 6 4 3 3 3 2 2 2 1 1 1 0 0 0 -0
19 20 20 20 20 20 20 20 19 18 17 16 15 14 15 15 15 15 17 17 18 17 15 14 14 15 14 14 14 13 13 13 13 13 12 11 12 13 14 12 14 16 13 12 15 15 13 10 8 10 12 13 14 13 11 13 15 14 12 11 12 12 12 12 12 12 13 13 10 11 13 10 6 5 5 4 3 3 2 2 2 1 1 1 1 0 -0 -0
19 20 20 20 20 20 20 20 18 17 17 15 14 14 15 15 15 15 17 19 18 17 16 17 16 15 15 14 12 11 13 15 13 12 12 11 10 12 14 13 14 15 12 12 14 13 12 11 10 12 13 13 14 13 11 11 14 15 12 9 10 10 11 11 11 12 13 14 11 10 13 12 8 5 5 4 3 2 2 2 1 1 1 1 0 0 -0 -0
20 20 20 20 19 20 20 19 18 17 17 15 14 15 14 15 15 15 18 19 18 16 16 17 17 16 16 13 11 13 15 15 14 13 12 11 11 12 14 14 14 13 10 11 14 13 12 12 12 12 13 14 14 13 11 10 13 14 11 8 9 10 10 10 10 12 12 12 12 11 12 12 11 6 4 5 4 3 2 1 1 1 1 0 0 -0 -0 -1
19 19 19 19 19 19 19 18 18 16 16 15 14 14 14 14 15 16 19 19 17 16 16 16 17 16 14 13 13 14 14 13 14 15 12 12 12 13 15 13 13 13 10 12 15 12 10 12 11 12 13 13 12 12 10 9 12 13 10 8 8 9 9 10 11 12 11 11 13 12 11 12 12 7 4 5 4 3 2 1 1 1 1 0 -0 -0 -1 -1
18 18 18 19 19 18 18 18 17 15 14 14 14 14 14 14 15 17 20 19 16 16 15 16 17 15 13 13 14 13 13 12 13 13 12 13 13 13 13 11 11 13 11 13 14 11 10 10 9 10 12 12 11 11 9 9 12 12 9 8 7 8 9 10 11 11 11 12 12 11 11 11 11 8 6 7 5 4 2 1 1 1 0 1 0 -0 -1 -1
18 18 18 18 18 17 17 17 15 14 14 14 14 14 14 15 17 19 19 17 16 15 15 15 15 13 12 14 15 13 12 12 11 12 12 12 13 13 10 9 11 13 13 13 12 10 9 8 8 9 10 10 10 9 7 8 10 10 9 10 9 9 10 10 11 11 11 13 11 10 10 10 10 8 6 5 4 3 2 1 1 1 0 0 -0 -0 -1 -2
18 18 18 18 17 17 17 16 14 14 14 14 13 13 14 17 18 19 18 16 15 15 14 14 13 11 11 12 13 12 12 12 10 11 12 12 12 13 11 10 12 14 15 14 13 11 10 10 10 9 8 8 9 10 8 7 9 10 12 13 12 12 12 12 12 12 12 12 10 9 10 10 10 8 5 3 2 2 3 2 1 1 0 0 -0 -1 -1 -2
18 18 17 17 17 16 16 15 14 13 13 13 13 14 17 19 18 16 16 15 15 14 13 12 11 11 10 11 12 11 11 12 11 10 11 11 11 10 11 11 11 13 15 14 13 13 12 11 10 9 8 8 10 12 11 10 11 12 12 13 12 12 12 11 12 11 11 11 10 9 9 10 9 5 2 2 2 2 2 2 1 1 0 -0 -1 -1 -1 -2
18 17 17 17 16 16 15 14 13 13 13 13 14 16 19 20 17 14 13 15 15 12 11 11 11 10 11 12 12 10 10 11 12 11 10 11 12 10 10 10 9 12 14 13 12 13 13 10 10 11 10 9 10 12 12 12 12 11 11 11 11 11 9 9 10 10 10 11 11 9 8 9 8 3 1 1 1 1 1 1 1 0 -0 -0 -1 -1 -1 -1
18 17 17 16 16 15 15 14 13 13 12 13 16 19 19 18 15 12 13 14 12 11 10 10 10 11 12 12 11 10 11 12 11 11 12 12 12 11 10 10 9 10 12 12 11 11 13 12 11 11 10 10 10 9 9 10 11 10 10 11 10 9 8 9 10 9 9 9 10 9 8 9 8 4 1 1 1 1 1 0 0 -0 -1 -1 -1 -1 -1 -1
18 18 17 16 16 15 14 13 13 12 13 15 17 18 17 16 13 12 12 12 11 10 10 9 10 13 13 12 10 9 11 12 11 11 11 11 11 10 9 9 9 9 10 12 10 10 12 12 10 9 8 9 9 8 7 8 10 11 10 10 10 9 8 9 9 8 7 7 8 9 8 6 4 2 1 1 1 1 1 0 0 -0 -1 -1 -1 -1 -1 -2
18 18 17 16 15 15 14 14 13 12 14 17 18 15 13 13 12 12 11 10 10 10 10 11 12 14 14 13 12 10 10 11 11 12 11 10 10 9 9 8 8 8 8 10 10 10 12 12 10 8 8 8 8 8 8 8 10 11 10 9 8 8 8 9 8 8 7 7 8 9 8 5 2 1 1 1 1 1 1 0 -0 -0 -1 -1 -2 -2 -2 -2
18 18 17 15 15 15 15 14 14 13 15 18 17 13 11 10 10 10 9 9 8 8 11 14 13 12 12 12 12 11 11 11 12 12 12 11 9 9 8 8 8 7 7 8 9 9 10 12 10 9 10 8 5 6 9 8 9 10 9 8 8 7 8 8 7 7 7 7 8 8 7 6 5 4 2 1 1 1 1 1 0 -0 -1 -1 -2 -2 -2 -2
18 18 17 15 15 15 15 15 15 15 16 15 13 11 10 10 9 8 7 7 7 8 11 13 12 11 11 11 12 10 10 12 12 12 12 11 10 8 7 8 7 7 6 6 9 8 8 11 11 9 9 9 7 8 10 9 8 9 8 8 8 8 8 8 7 6 6 6 7 7 7 6 5 5 3 2 2 2 1 1 -0 -1 -1 -2 -2 -2 -2 -2
18 18 17 16 16 16 16 16 16 16 17 14 12 10 10 10 8 6 5 6 7 9 11 11 10 11 11 10 11 9 9 10 11 11 11 11 10 8 6 7 7 8 6 6 8 8 8 11 11 9 8 9 9 9 9 8 9 9 8 8 8 7 7 7 6 6 6 6 6 6 6 6 4 4 3 3 3 3 2 0 -1 -1 -2 -2 -2 -2 -2 -2
17 19 18 16 16 16 16 17 16 15 15 12 10 10 9 9 8 5 2 4 8 9 11 10 9 10 10 9 9 9 9 9 10 11 11 9 9 8 5 5 5 6 6 7 7 7 8 10 10 11 10 9 10 9 7 8 8 8 7 6 6 7 7 6 6 5 6 6 5 4 5 6 5 3 3 2 2 2 1 -0 -1 -2 -2 -1 -1 -2 -2 -2
16 19 18 16 16 17 17 17 13 11 11 10 10 10 9 9 9 6 3 3 6 8 8 9 9 10 10 9 9 9 9 10 9 10 10 9 9 8 5 2 3 4 6 8 8 6 8 9 9 10 11 9 8 6 6 7 7 7 7 5 5 5 6 6 5 4 4 5 5 4 4 6 5 3 2 2 1 0 -0 -1 -2 -1 -1 -1 -1 -1 -1 -1
17 18 17 16 17 18 17 15 9 8 10 10 9 9 8 8 9 8 6 5 6 8 8 9 9 8 9 9 9 8 9 10 9 9 9 8 8 8 4 0 -0 1 4 8 7 5 6 8 8 9 9 8 7 5 4 6 6 6 5 5 5 5 5 6 6 5 4 4 4 3 4 4 4 2 2 1 0 -0 -0 -1 -1 -1 -1 -1 -1 -1 -1 -1
17 18 17 16 17 18 17 14 10 9 10 8 7 7 7 8 9 9 8 7 8 9 9 9 9 8 8 8 8 9 9 9 9 9 9 8 7 6 4 0 0 2 5 7 6 5 6 7 8 9 9 7 6 5 4 5 6 6 5 4 4 3 3 4 4 4 4 4 3 3 3 4 3 2 2 1 -0 -0 -1 -1 -1 -1 -1 -1 -1 -1 -1 -1
15 15 16 16 18 19 18 15 13 11 9 9 9 9 7 7 9 9 9 8 8 9 10 10 8 8 8 7 7 9 8 8 9 8 8 8 7 5 3 2 3 4 6 6 6 6 7 7 8 9 9 8 7 7 6 6 6 5 4 3 2 1 1 1 1 2 3 4 3 2 3 5 3 1 1 1 -0 -1 -0 -0 -1 -1 -1 -1 -1 -1 -1 -2
15 15 16 15 16 16 13 11 12 12 11 11 11 10 9 9 8 7 8 8 6 7 9 9 7 7 7 7 8 8 7 8 9 7 7 7 7 5 4 3 3 4 4 4 4 5 6 7 7 8 9 9 9 8 8 7 6 5 3 2 1 0 0 1 3 3 3 3 3 1 2 4 4 2 1 0 -0 -0 -0 -0 -0 -1 -1 -1 -1 -2 -2 -3
17 17 16 16 13 11 9 7 10 12 12 12 12 10 10 11 8 6 7 8 6 6 8 8 7 7 8 8 9 8 7 7 8 7 7 7 7 6 4 4 4 4 4 3 2 4 6 6 6 7 8 8 8 8 7 6 5 5 3 2 1 0 -1 1 3 4 3 3 2 2 3 3 3 3 2 1 -0 -0 -0 -0 -0 -1 -1 -1 -2 -2 -3 -3
16 15 13 15 15 13 11 9 9 11 11 12 12 10 10 11 10 8 8 8 7 6 8 8 7 8 9 8 8 8 7 7 8 7 6 5 6 5 4 4 5 4 4 3 2 4 7 7 4 4 5 6 7 6 5 4 5 4 3 1 1 0 -1 1 3 3 3 2 2 3 3 2 2 3 1 -0 -0 -1 -1 -1 -1 -1 -1 -2 -2 -2 -3 -4
14 13 9 11 14 14 13 11 9 9 10 10 9 9 11 11 11 10 9 8 8 7 9 9 8 7 7 7 8 8 7 7 8 6 5 4 5 6 6 5 5 4 4 5 3 4 7 7 3 2 4 5 5 5 4 4 4 3 2 2 2 1 0 1 2 3 2 1 1 3 2 1 2 2 0 -1 -1 -1 -1 -1 -1 -1 -1 -2 -3 -3 -4 -5
12 12 9 9 11 11 9 8 9 10 11 11 10 10 10 11 11 9 8 9 10 9 9 10 9 7 6 6 7 8 7 8 8 6 5 5 4 6 7 7 6 4 5 5 3 2 5 6 2 1 3 5 4 3 3 3 3 2 1 2 2 1 1 1 2 2 2 1 2 2 1 1 2 1 -0 -1 -0 -1 -1 -1 -1 -2 -2 -3 -3 -4 -5 -6
13 14 11 10 10 8 6 7 10 12 12 10 11 10 9 10 11 9 7 9 11 10 9 9 8 6 5 6 7 8 7 7 8 6 5 5 5 5 6 6 6 5 5 4 3 3 5 5 1 -0 3 5 4 2 3 3 2 2 2 2 1 1 1 1 2 2 1 1 1 1 0 0 1 0 -1 -0 -0 -1 -1 -2 -2 -2 -3 -3 -4 -5 -6 -7
12 12 12 14 12 9 8 9 10 13 13 11 12 11 9 10 10 9 8 8 8 9 9 8 8 6 5 6 7 7 6 6 6 6 5 6 6 5 5 5 5 5 5 3 2 3 5 3 0 1 5 6 4 3 4 2 1 1 1 1 1 1 1 2 2 2 1 0 0 -0 -1 0 1 -0 -1 -1 -1 -1 -2 -2 -3 -3 -3 -4 -5 -6 -7 -8
11 11 11 15 13 9 9 10 11 13 12 10 10 10 10 10 7 7 10 8 7 7 7 7 8 7 7 7 7 6 5 4 4 4 4 4 5 4 4 4 3 4 4 2 0 -0 1 3 3 2 4 6 4 3 2 1 2 3 3 2 2 1 1 1 1 2 2 1 -0 -1 -0 1 0 -1 -1 -1 -1 -2 -2 -3 -3 -3 -4 -5 -6 -7 -8 -8
Height
829 828 827 827 826 826 825 825 825 825 825 824 824 824 824 824 823 823 822 822 821 821 820 819 818 817 816 815 815 815 814 815 815 815 816 818 818 817 816 815 814 814 813 813 812 811 811 811 811 811 810 811 813 814 815 816 816 816 817 822 821 818 817 813 813 815 814 810 815 825 825 820 819 823 825 825 825 823 825 825 824 825 826 828 828 829 829 830
829 828 828 827 826 826 826 825 825 825 824 824 824 823 823 823 822 822 822 821 821 820 819 818 817 816 815 815 814 814 814 814 814 815 817 818 817 817 816 815 814 813 813 812 812 811 810 810 811 810 810 811 814 814 815 816 816 815 818 822 818 813 812 812 811 812 814 813 815 822 826 824 819 821 824 822 821 824 824 821 823 824 824 828 829 829 830 831
829 829 828 827 827 826 826 826 825 825 824 824 823 823 823 822 822 821 821 820 820 819 818 817 817 816 815 814 814 814 814 814 814 817 818 818 817 816 815 814 813 813 812 812 811 811 810 810 810 810 810 812 814 815 814 816 816 816 820 819 813 812 813 815 816 814 816 817 816 820 827 827 822 823 823 820 819 820 818 815 819 820 819 823 828 830 830 831
829 829 828 827 827 826 826 825 825 825 824 824 823 822 822 821 821 820 820 819 819 818 817 817 816 815 814 813 813 814 813 814 816 819 819 818 817 815 815 813 813 812 812 811 811 810 810 810 809 810 811 812 815 815 814 816 817 818 819 814 812 817 815 814 818 818 821 823 819 821 826 825 823 825 823 821 818 813 812 814 816 815 815 820 826 829 830 831
829 829 828 827 827 826 826 825 825 824 824 823 822 822 821 820 820 819 819 818 818 817 817 816 815 814 814 813 813 812 813 816 819 819 818 817 816 815 814 813 812 812 811 810 810 809 809 809 809 810 811 813 815 815 815 818 819 817 815 813 817 820 815 816 822 823 826 825 823 823 823 821 823 825 823 822 818 815 819 822 821 819 819 822 825 829 830 831
829 829 828 827 827 826 825 825 824 824 823 822 822 821 820 820 819 819 818 818 817 817 816 816 815 814 813 812 813 811 812 818 820 817 817 816 815 815 813 813 812 811 811 810 809 809 808 809 808 811 812 813 815 815 816 820 821 816 813 816 821 821 817 819 824 826 828 824 821 822 821 823 823 823 826 826 823 824 828 828 827 825 825 825 826 828 830 832
829 829 828 827 826 826 825 825 824 823 822 822 821 820 819 819 818 818 818 817 817 816 816 815 814 814 813 812 812 811 812 818 819 817 817 816 815 814 813 813 812 811 811 809 808 808 808 808 808 811 812 813 815 815 819 821 821 818 815 817 822 825 821 821 826 828 828 824 823 825 824 824 822 822 829 829 828 830 830 830 830 828 828 828 828 830 832 834
829 828 827 827 826 825 825 824 823 822 822 821 820 819 819 818 817 817 817 816 816 815 815 815 814 814 812 812 812 812 815 818 819 818 817 816 815 814 813 812 811 811 810 809 808 807 808 808 809 811 811 813 814 815 821 820 818 818 816 817 823 825 822 824 827 828 828 827 827 828 824 823 825 828 829 830 832 833 832 831 831 829 830 830 831 833 835 837
829 828 827 826 826 825 824 823 822 822 821 820 819 819 818 817 816 816 816 816 815 815 815 814 814 813 812 812 812 814 818 820 819 818 817 816 815 813 813 812 811 811 810 809 809 807 807 808 809 809 809 814 815 816 821 818 815 817 817 818 820 820 822 825 826 827 829 828 827 827 823 825 831 831 828 832 836 835 834 833 832 831 832 833 835 837 838 840
829 828 827 826 825 824 823 823 822 821 820 819 818 817 817 816 815 815 815 815 814 814 814 814 814 813 812 812 811 815 820 820 819 818 817 816 815 814 813 812 811 810 810 809 809 808 807 808 809 808 809 814 816 818 821 817 817 820 820 820 821 821 824 826 825 827 829 827 828 825 823 828 833 830 829 835 839 838 836 835 835 834 835 838 838 840 841 842
829 828 827 826 825 824 823 822 822 821 820 819 817 816 815 814 814 814 813 814 814 814 814 814 813 813 813 811 812 817 821 820 819 818 816 816 814 814 813 812 811 810 810 810 809 809 808 808 809 809 810 812 815 820 822 820 821 823 823 820 820 823 825 826 825 828 827 825 829 827 826 831 831 833 839 843 843 841 839 838 839 839 840 842 842 844 845 846
829 828 827 826 825 824 823 822 821 820 819 817 816 814 813 812 812 812 812 813 813 813 814 813 813 813 813 812 815 820 820 820 819 818 817 816 814 814 813 812 811 810 810 810 810 809 809 809 809 809 812 812 815 818 820 823 823 824 823 818 816 817 820 824 825 829 828 824 830 829 824 829 834 841 848 848 845 843 841 842 843 844 846 846 847 848 849 852
829 828 827 825 824 823 822 822 820 819 818 816 814 812 811 811 811 811 811 812 812 813 813 813 813 813 813 816 820 821 821 820 819 818 817 815 814 814 813 812 811 810 810 810 810 810 809 810 809 811 814 813 815 819 820 824 824 822 822 820 815 811 815 824 826 828 828 825 831 828 817 823 838 846 850 849 847 845 843 845 847 849 850 851 852 853 855 857
828 827 826 825 824 823 822 821 820 819 817 815 814 812 811 811 811 811 811 811 812 813 813 813 813 813 814 820 822 821 821 821 820 818 817 816 814 813 813 812 811 811 811 810 810 810 810 810 810 811 815 816 818 821 820 820 821 819 821 822 818 812 813 822 829 825 823 825 829 826 814 820 840 848 850 852 848 846 846 849 852 853 855 856 857 859 860 863
828 827 826 825 824 823 822 821 820 818 816 815 814 813 812 811 811 811 811 811 812 813 813 813 814 813 816 821 822 822 822 820 820 819 817 816 814 814 814 812 812 811 811 811 811 811 811 811 811 812 818 821 820 818 816 815 818 819 818 816 817 817 813 818 829 827 823 824 825 823 814 820 845 855 854 854 849 848 850 854 856 857 859 860 862 864 865 868
828 827 826 825 824 823 822 821 820 818 817 816 814 814 813 813 812 811 811 811 811 812 812 813 814 813 817 822 822 821 822 821 821 820 818 817 815 815 814 813 813 812 812 812 812 812 812 812 816 819 819 819 819 816 814 811 813 818 817 814 816 820 817 816 826 832 830 826 823 823 819 825 849 859 858 856 852 851 854 858 860 861 864 865 867 869 870 873
828 827 826 825 824 823 822 821 820 819 817 816 815 815 814 814 813 812 812 811 812 813 813 814 814 813 818 822 822 822 824 823 821 820 819 817 815 815 814 814 814 813 813 813 812 813 812 814 820 820 816 818 820 816 813 812 812 816 818 817 820 824 823 819 822 831 832 828 825 824 826 840 857 863 862 860 857 856 858 862 865 867 869 871 872 874 876 878
828 827 826 825 824 823 821 821 820 819 817 816 816 815 815 815 814 813 813 813 813 812 812 815 814 817 823 824 825 827 825 823 822 821 818 816 815 814 814 814 814 814 813 813 813 812 812 815 817 814 815 818 820 818 818 821 823 823 822 821 821 824 826 823 822 831 833 828 828 825 830 850 863 865 866 864 862 862 864 868 870 872 874 875 878 879 881 883
828 827 826 825 824 822 821 820 819 819 818 816 815 815 815 815 814 815 815 814 816 818 821 824 823 826 830 828 829 828 824 824 822 821 819 816 815 815 815 814 814 813 813 813 812 815 816 815 815 817 822 825 828 830 828 830 832 830 830 829 826 826 825 823 826 836 840 831 830 835 842 858 867 869 870 869 867 867 869 873 874 876 878 880 882 884 886 887
828 827 826 825 823 822 821 820 819 818 817 816 815 815 815 817 818 819 820 821 826 830 831 833 832 831 831 830 830 827 824 824 823 822 820 816 815 815 814 814 814 812 817 819 817 821 821 818 825 831 834 837 839 842 840 839 839 835 834 832 831 830 825 825 829 839 844 835 834 846 855 865 871 873 875 872 871 872 874 876 878 881 882 884 886 888 890 890
828 827 826 824 823 822 821 820 819 818 817 816 814 815 818 821 821 823 826 830 834 834 833 834 834 832 832 832 831 829 827 824 823 823 821 818 816 814 815 815 814 815 824 829 825 824 822 826 838 843 844 847 846 848 845 841 840 837 834 832 830 829 827 830 836 841 841 834 835 846 857 870 877 877 878 877 876 877 878 880 882 885 886 888 890 891 892 894
827 827 825 824 823 822 821 820 819 818 818 816 814 817 821 822 822 823 824 829 834 834 833 834 834 833 833 833 832 831 829 826 824 823 822 820 815 816 819 818 819 824 827 827 823 821 824 834 845 849 851 851 848 848 844 839 839 834 831 831 828 828 829 832 838 842 838 832 832 839 854 872 880 880 882 881 882 885 884 885 886 888 890 891 893 894 895 896
827 826 825 824 823 821 821 820 819 819 817 816 816 819 822 822 822 822 821 825 832 834 834 834 834 834 833 832 833 831 830 833 831 827 826 823 821 824 825 824 825 828 829 826 822 822 829 839 849 854 854 848 843 844 840 834 833 832 831 830 829 833 834 833 836 838 837 837 836 836 850 871 877 879 885 885 886 890 890 891 892 893 895 896 896 897 897 898
827 826 825 823 822 821 820 820 819 818 818 818 819 821 822 822 822 822 823 828 833 834 834 836 836 835 835 835 835 833 833 837 837 834 832 829 827 827 829 832 829 826 834 836 829 829 839 848 855 856 850 844 839 839 840 833 828 833 838 836 835 838 839 837 836 835 834 840 844 837 838 859 873 875 883 888 888 891 893 893 896 897 898 899 899 900 900 900
826 825 824 823 822 821 820 819 819 819 819 820 820 822 822 822 823 822 824 830 835 834 834 836 836 836 837 836 835 836 836 837 840 839 836 835 832 830 832 836 832 828 838 841 833 835 845 855 858 851 844 842 838 839 847 842 831 832 843 846 844 843 843 841 838 834 827 827 840 838 824 840 871 878 880 887 889 892 895 895 897 900 900 900 901 902 903 902
826 825 824 823 822 821 819 820 820 820 820 821 822 823 822 822 823 822 823 831 838 839 838 835 837 838 837 837 837 837 836 837 840 841 838 837 836 833 833 836 836 835 841 842 837 842 850 854 854 848 843 840 837 841 851 851 836 830 844 853 851 849 846 843 841 837 827 824 837 841 826 831 859 877 880 885 890 893 896 898 899 901 901 902 903 903 904 903
826 825 824 823 822 820 819 820 821 821 821 822 823 822 823 823 823 823 825 835 844 846 844 839 839 841 840 842 840 836 840 841 840 841 840 839 838 835 834 838 839 840 847 844 838 848 854 850 849 847 842 840 840 844 852 856 843 834 849 857 853 851 848 846 845 837 832 833 834 836 835 827 837 868 884 882 888 894 896 900 901 902 903 904 905 905 905 905
826 825 824 823 822 820 820 821 821 822 822 823 823 822 823 823 823 823 827 844 853 848 847 844 841 843 843 844 842 841 847 847 843 843 842 841 839 835 835 843 844 844 849 841 837 855 860 854 854 850 844 844 848 852 856 860 848 840 852 857 855 855 852 849 842 836 838 836 827 830 840 829 827 864 886 878 883 892 897 903 903 904 905 904 906 907 906 907
826 825 824 823 822 821 821 821 821 823 823 823 823 823 824 823 824 824 828 848 857 850 850 847 842 846 848 846 846 849 850 849 850 849 845 842 841 838 841 848 848 846 847 840 843 859 862 861 863 857 851 852 853 856 861 861 849 846 854 856 859 856 851 848 839 838 841 834 832 838 843 836 834 859 875 870 877 888 896 904 904 904 906 905 907 907 907 908
826 826 825 823 822 822 821 822 822 823 822 823 823 823 824 824 825 829 839 853 857 853 853 850 850 857 856 849 847 852 853 854 857 854 848 847 844 842 847 851 848 845 846 844 850 861 864 866 867 863 862 861 859 860 865 863 854 852 850 845 849 848 845 845 839 839 835 828 840 848 846 846 843 854 871 878 886 891 896 902 904 905 906 906 907 907 908 908
827 826 825 824 823 823 822 822 822 822 822 822 823 823 824 825 828 839 853 860 858 857 855 856 860 863 863 860 856 857 857 857 860 857 852 852 848 845 847 851 850 843 839 844 850 857 861 860 861 867 870 865 860 858 862 864 855 850 841 832 834 835 835 834 830 835 834 831 845 852 849 848 844 859 883 893 897 896 895 899 903 905 906 907 908 907 909 909
827 827 826 824 823 822 822 822 822 822 822 822 823 824 823 828 840 856 864 860 858 862 864 866 867 865 868 867 864 866 865 860 861 864 863 859 858 860 861 864 863 849 841 848 852 850 855 861 863 867 870 866 858 849 850 853 848 844 840 836 835 833 839 840 834 840 842 837 845 853 853 847 851 881 900 899 902 901 899 902 903 906 907 907 909 908 908 908
828 827 826 825 824 823 822 821 821 821 822 822 824 823 823 833 855 873 872 862 863 871 873 873 871 870 869 863 864 871 869 865 863 864 867 863 862 867 870 874 874 861 852 855 855 850 851 860 863 861 864 866 862 854 853 852 850 851 851 849 849 850 860 861 851 852 852 844 845 853 860 852 857 893 909 903 906 906 904 906 905 907 909 908 908 908 907 906
828 827 827 825 824 823 821 821 821 821 822 822 822 821 828 846 867 878 874 868 873 876 877 878 875 870 867 865 871 875 867 866 869 865 863 862 863 869 872 875 876 871 863 859 865 865 855 856 863 865 867 867 867 869 871 865 860 861 860 857 858 863 872 870 860 862 863 855 851 854 861 857 860 890 910 907 908 907 906 908 908 908 908 908 908 906 906 905
828 828 827 825 824 823 822 821 820 821 821 821 823 830 844 862 875 878 876 876 879 877 877 880 874 864 862 867 875 877 869 867 870 869 868 869 872 876 879 881 881 880 871 862 870 874 859 859 872 877 876 874 872 876 878 871 862 860 861 860 865 871 875 870 864 871 876 871 862 857 861 872 887 903 909 906 907 908 908 908 908 908 907 907 907 906 906 904
828 828 827 826 825 823 822 822 820 822 822 818 828 850 867 876 879 879 881 882 883 883 877 873 870 864 864 867 869 873 873 870 869 868 872 878 881 883 885 886 887 888 882 874 877 875 861 861 874 878 877 878 879 877 876 874 865 860 864 868 876 880 875 871 869 873 879 874 861 854 860 879 897 903 905 906 905 905 906 906 906 906 906 906 907 907 906 903
828 829 829 827 826 825 823 823 821 822 821 820 838 868 882 884 885 885 888 887 889 890 877 867 871 874 874 871 869 873 872 869 868 866 869 877 882 888 890 889 890 892 892 887 883 884 876 865 870 877 874 878 886 881 874 877 873 868 874 878 879 880 874 875 879 876 875 872 859 855 865 873 876 884 898 905 902 902 903 903 905 906 906 907 906 905 904 902
828 828 829 829 828 827 824 823 824 822 821 833 859 880 884 885 889 891 892 892 892 889 877 871 876 879 881 877 874 881 878 869 869 870 871 875 882 893 895 892 892 892 896 893 882 886 886 869 867 878 877 876 882 878 873 877 877 875 880 880 877 880 876 876 885 885 883 882 870 863 868 874 876 881 891 896 894 896 898 900 904 906 906 906 905 903 903 902
828 828 831 833 831 829 827 825 825 821 824 848 873 882 883 887 891 895 898 896 892 885 878 881 884 880 882 883 881 886 885 878 877 875 875 879 884 895 900 898 895 891 894 896 886 888 889 873 867 875 878 876 873 874 878 880 879 877 880 881 880 884 884 884 889 889 886 887 884 876 870 872 882 887 889 891 890 890 895 900 904 906 906 905 903 902 902 900
828 829 833 835 831 832 831 824 825 829 842 866 880 882 886 889 890 898 902 898 891 885 881 886 888 883 884 888 888 889 888 886 884 879 880 887 888 894 904 906 902 897 895 893 892 893 888 879 874 869 872 877 875 881 888 885 884 884 885 891 891 888 887 889 893 893 891 889 891 891 877 866 877 890 891 893 894 895 900 903 904 905 905 903 902 901 900 898
828 830 835 835 832 833 829 828 843 857 865 877 882 884 889 889 888 895 901 900 894 889 888 888 888 887 887 888 889 892 889 886 888 886 886 892 891 893 905 912 911 906 897 889 892 896 889 884 883 873 870 878 884 895 898 891 890 891 892 898 900 896 893 890 893 899 901 895 894 897 886 869 876 891 892 894 898 901 903 904 905 904 902 901 900 899 898 896
830 837 840 836 833 832 830 843 868 875 873 879 884 887 891 890 889 891 895 898 894 890 891 890 890 892 891 889 890 893 891 886 888 890 890 896 898 898 907 917 918 913 903 893 897 902 897 891 886 879 880 887 893 900 902 897 894 895 899 902 901 902 899 892 891 897 900 900 899 902 893 878 882 891 892 895 900 901 902 903 903 902 900 900 898 896 895 895
837 842 841 837 836 832 834 854 875 878 880 888 891 891 893 891 888 889 891 893 891 888 888 888 891 893 892 894 893 891 892 891 892 893 893 898 903 905 911 916 915 911 904 897 899 902 899 895 889 881 884 893 898 902 904 901 896 896 903 907 906 907 907 903 903 903 901 899 901 906 896 879 884 893 892 895 900 901 901 902 901 901 899 897 895 894 893 893
843 844 841 839 835 831 838 857 871 877 885 888 887 889 893 893 890 889 890 891 892 891 886 888 893 892 893 898 895 892 894 893 893 897 898 899 902 907 913 914 911 906 902 900 902 899 895 895 891 882 880 884 889 892 894 894 895 899 906 912 915 918 920 918 916 913 906 898 902 910 895 874 881 894 893 895 900 900 900 900 899 899 896 895 894 893 892 892
842 844 845 844 838 838 852 866 868 873 881 881 882 888 890 891 894 895 893 894 898 896 890 891 896 895 897 898 895 896 898 893 893 899 902 902 904 907 911 911 910 907 906 908 907 902 898 898 894 886 882 881 880 881 885 891 897 903 909 915 918 922 922 915 908 906 902 898 905 910 894 876 880 890 892 895 898 898 897 896 895 895 894 894 893 891 891 891
842 847 851 851 849 853 867 877 872 871 877 877 880 889 889 887 893 899 897 894 897 898 894 894 897 895 895 895 893 895 898 897 896 899 904 905 903 907 911 910 909 908 908 910 909 906 904 904 903 899 893 888 885 885 892 898 899 902 910 917 918 923 926 916 904 899 899 902 905 902 893 886 883 883 888 894 896 896 896 894 894 894 893 892 892 891 891 890
846 856 862 859 858 862 869 878 878 876 878 877 881 889 890 886 890 893 894 894 896 898 896 896 897 894 893 896 895 895 899 900 898 900 909 912 908 909 911 909 908 907 908 909 910 907 898 899 911 914 904 896 894 895 900 905 903 903 912 917 916 921 925 918 906 899 901 908 902 888 889 895 888 884 890 896 896 896 895 893 893 892 891 891 890 890 890 890
851 863 872 865 864 869 871 876 883 882 880 882 889 893 889 887 889 888 890 893 895 896 893 892 897 899 899 901 896 895 900 900 899 905 912 914 912 907 905 907 908 908 907 906 909 908 898 899 918 923 909 901 902 903 904 906 906 908 913 913 912 917 920 915 908 902 904 909 901 888 893 897 888 886 894 897 896 895 893 891 891 890 889 889 888 888 889 891
857 863 873 870 870 880 884 885 886 882 880 883 888 892 890 888 889 893 896 893 891 893 892 890 895 901 904 903 898 898 900 896 898 908 911 911 913 908 903 904 906 908 907 905 911 915 904 902 921 929 915 903 905 908 909 908 909 913 915 912 910 913 914 911 907 902 902 905 900 895 898 895 888 890 896 896 894 893 891 890 889 889 889 888 887 888 890 891
854 857 866 869 874 885 890 889 884 877 880 884 884 890 896 891 889 895 899 894 889 892 894 893 897 904 905 903 899 898 901 899 899 906 910 909 910 910 907 905 906 908 907 909 915 914 905 908 926 933 916 900 904 911 909 908 910 910 910 911 911 911 911 909 906 903 905 905 901 901 901 895 890 893 895 894 892 891 890 890 889 889 888 887 887 889 890 891
851 854 858 860 872 886 887 886 884 876 878 884 884 890 895 891 891 895 896 898 896 894 896 897 898 904 906 904 901 900 902 905 903 904 908 907 905 908 909 908 911 909 907 916 920 912 908 915 928 928 906 892 902 909 904 909 915 913 910 909 909 909 907 906 904 903 905 906 904 905 902 892 888 893 894 892 891 891 890 890 889 888 887 887 888 890 891 891
852 856 856 855 870 887 887 884 883 878 881 889 890 891 891 891 898 898 891 896 901 899 900 901 899 901 902 901 902 903 904 907 908 907 910 909 909 912 911 911 915 912 911 919 925 928 925 916 918 923 905 891 900 907 909 913 906 897 899 900 901 906 905 903 903 900 900 904 905 902 895 889 891 895 893 890 889 889 889 888 888 886 885 886 889 890 890 890
Wind_Speed
8 9 10 10 8 7 6 6 5 5 6 5 5 5 4 4 4 6 6 7 7 9 10 9 8 9 10 9 6 4 4 8 11 14 11 7 8 10 11 11 7 8 7 6 5 2 1 1 2 2 2 2 1 0 1 1 1 2 3 4 5 4 3 3 4 3 1 3 2 4 5 4 1 3 3 2 4 4 3 5 4 3 1 3 3 4 8 14
8 9 10 10 9 8 7 6 5 5 5 5 5 4 4 3 4 5 6 7 8 9 9 9 9 9 10 8 4 3 4 7 12 14 10 9 9 9 10 9 6 7 6 4 5 3 0 1 2 1 1 2 0 0 1 0 1 3 2 3 5 3 1 1 2 2 2 3 2 3 3 4 1 3 4 3 4 4 5 6 5 6 6 4 3 6 11 13
8 9 9 9 9 8 7 6 5 4 5 4 4 4 3 4 4 5 6 7 8 9 10 9 9 10 10 7 2 2 3 5 6 8 8 10 8 8 10 9 6 7 6 3 4 3 1 2 1 1 1 1 0 0 2 1 1 1 1 6 4 0 1 1 2 2 1 3 2 1 2 3 1 2 3 3 3 4 6 5 5 8 7 8 7 8 11 12
8 9 9 9 8 8 7 6 5 5 5 4 4 4 4 4 5 6 6 7 8 9 9 9 10 10 9 7 3 2 2 5 2 3 7 9 8 8 9 8 6 6 4 3 3 3 3 3 2 1 1 2 1 1 2 0 1 2 3 5 1 1 2 1 1 2 1 1 3 1 2 2 1 1 2 2 5 4 2 4 5 6 2 6 9 9 11 12
8 9 9 9 8 8 8 7 7 6 6 6 5 5 5 5 6 7 7 8 9 9 9 9 9 10 9 6 4 3 3 3 2 3 7 10 9 8 8 8 7 5 3 3 2 3 4 4 2 2 0 1 2 2 2 2 1 2 3 2 2 1 3 2 2 1 1 1 1 2 2 1 2 2 2 3 5 4 5 8 9 8 7 3 8 10 10 11
8 8 8 9 9 9 9 8 8 7 7 7 6 6 6 6 7 7 8 8 8 8 8 9 9 9 9 6 4 3 2 0 3 5 8 10 9 8 7 8 7 4 3 1 2 3 3 3 2 2 1 1 3 2 1 2 0 4 2 1 1 1 2 1 2 1 2 2 2 1 1 1 1 1 1 2 5 9 9 9 10 9 8 3 6 10 9 9
7 8 8 8 9 9 10 10 9 9 8 8 7 7 7 7 7 7 8 8 8 8 7 9 9 9 8 5 4 4 3 2 4 6 8 10 10 7 5 6 6 4 2 0 2 3 3 2 2 2 2 1 2 2 1 2 2 5 3 1 1 2 2 1 2 1 2 2 0 1 1 1 1 1 2 4 9 13 13 10 9 7 5 3 4 6 5 5
8 8 9 9 9 10 11 10 10 9 9 8 8 8 8 8 8 8 8 8 8 7 6 8 9 8 7 4 1 3 4 2 5 8 9 10 9 7 4 5 5 3 2 3 2 3 3 1 2 3 3 1 2 3 2 2 5 6 4 0 1 2 2 2 1 1 1 1 1 0 3 1 2 2 1 7 13 14 13 9 7 6 7 7 6 6 6 8
8 8 9 9 9 10 11 11 11 10 9 9 8 8 8 8 9 9 8 7 8 7 6 7 8 7 6 3 1 1 3 2 6 10 10 10 8 5 4 4 5 3 2 5 2 3 2 2 3 3 2 1 2 3 2 3 3 3 2 1 1 1 2 3 1 1 0 1 1 2 4 2 3 1 1 9 16 14 10 9 9 9 10 10 9 9 8 9
7 7 8 9 9 10 10 10 10 10 10 10 10 10 10 9 9 9 8 7 6 6 6 6 6 6 6 3 1 1 2 1 8 12 11 10 7 3 3 5 4 3 2 4 3 1 0 2 3 2 1 2 2 1 1 2 0 1 0 1 2 2 2 3 2 2 1 1 2 3 2 4 3 1 2 10 16 12 8 10 11 11 12 11 10 10 11 12
7 8 8 9 9 9 9 10 10 10 11 11 12 12 12 11 9 8 7 6 5 5 4 5 6 5 6 4 2 3 2 1 10 15 12 10 6 2 4 9 5 0 1 3 3 3 2 3 5 2 0 2 3 2 1 1 1 1 1 3 2 1 1 2 2 1 1 2 3 3 1 5 2 2 5 12 14 10 8 11 12 12 11 11 12 12 13 14
8 8 9 9 9 10 10 10 11 12 12 13 13 13 12 10 8 7 6 4 3 3 3 5 5 3 5 7 5 3 2 2 10 15 11 10 8 3 5 12 6 2 1 0 2 2 3 6 6 2 1 2 3 1 2 1 1 1 1 4 3 3 2 3 3 1 1 1 3 2 2 4 5 6 9 12 11 7 8 11 11 12 11 11 13 12 13 17
9 10 10 10 11 11 11 12 14 14 15 15 13 10 8 6 4 4 3 3 3 1 3 4 3 2 2 4 4 2 3 6 10 12 11 13 11 3 5 11 5 2 1 2 4 3 4 7 5 2 2 1 1 2 3 3 1 1 1 2 4 4 2 3 2 0 1 2 3 3 2 3 7 8 12 12 11 6 8 11 10 10 10 11 12 13 15 19
11 11 11 12 12 12 11 13 16 17 17 15 11 11 9 7 5 3 1 2 2 1 2 2 1 2 3 2 1 3 6 9 11 14 14 18 14 3 4 8 3 2 2 4 5 5 6 7 5 5 3 2 1 3 3 2 1 1 1 1 2 3 1 4 2 1 1 2 3 4 4 2 7 11 14 13 11 5 9 11 11 10 11 11 13 14 15 19
12 12 13 13 13 12 11 13 16 18 18 13 10 11 11 10 9 6 4 2 1 1 1 1 2 2 4 3 2 2 8 10 13 17 17 20 15 4 5 5 2 2 4 5 6 8 7 6 4 3 2 1 1 2 2 1 1 1 2 1 1 1 2 4 3 3 2 1 1 3 4 3 8 13 14 13 9 7 12 12 12 13 13 13 13 14 14 18
12 13 13 14 14 13 12 12 15 17 17 12 9 10 12 13 10 7 6 4 4 5 4 3 2 1 3 3 1 3 9 9 12 17 18 19 13 6 8 2 3 3 5 6 8 7 5 4 2 1 1 1 2 2 3 3 2 1 1 3 2 3 5 2 3 4 4 2 1 1 4 2 7 12 14 13 9 10 13 13 13 13 14 13 12 13 13 15
12 13 13 13 14 14 13 12 13 15 16 11 7 9 13 17 14 8 8 9 11 10 9 7 3 2 3 3 1 5 9 9 11 17 20 19 10 7 9 2 2 4 6 5 4 2 3 2 0 1 1 1 0 2 4 3 1 1 2 3 3 2 4 4 1 4 5 3 2 2 1 5 9 11 14 13 10 12 13 13 14 13 13 13 13 13 14 14
12 12 12 13 13 15 15 12 11 14 15 11 4 6 9 15 19 16 10 9 7 6 8 10 5 3 3 5 3 8 13 12 10 16 22 20 9 6 7 3 1 2 4 2 1 1 2 1 1 1 2 3 3 3 4 4 4 4 5 5 4 2 3 5 3 5 7 4 4 4 2 8 12 12 13 13 11 13 13 13 13 14 14 13 13 13 14 15
11 12 12 13 14 15 15 12 11 13 14 12 3 3 3 5 11 17 19 13 5 2 3 5 5 1 2 4 5 12 13 8 7 16 23 22 12 5 4 4 1 1 2 1 1 3 2 0 0 1 4 5 5 5 5 5 4 5 5 5 6 5 4 6 3 5 6 4 3 4 5 8 12 12 12 11 11 13 13 13 12 12 13 13 13 13 13 14
12 13 13 14 15 15 15 12 11 12 13 11 2 3 1 1 1 6 15 14 6 3 2 1 2 1 2 2 8 15 8 2 4 15 26 24 12 3 2 3 1 2 3 2 2 2 2 2 4 3 5 6 6 4 3 3 2 3 3 3 5 6 5 5 3 4 3 3 3 8 9 10 11 11 11 10 11 13 13 13 12 12 12 12 13 14 14 14
12 13 13 14 15 15 15 11 10 11 11 10 5 3 1 1 1 2 3 5 3 2 3 1 1 1 3 2 9 13 4 1 2 12 27 23 8 2 4 4 0 4 4 3 2 1 0 5 5 5 5 4 4 2 1 0 0 1 2 4 4 4 5 4 3 3 2 3 2 8 10 11 11 11 10 10 11 12 12 12 13 13 12 12 13 14 13 12
13 13 13 14 15 15 14 10 9 9 9 11 11 8 3 1 3 3 2 3 3 2 1 1 0 2 2 1 8 10 2 3 5 12 27 23 8 4 5 4 4 4 4 3 1 1 3 6 5 5 3 1 1 1 1 1 1 2 2 3 3 4 5 2 3 2 2 4 1 6 8 9 10 11 11 11 12 11 11 12 12 12 12 11 11 12 11 11
13 13 14 15 14 15 13 8 8 9 10 14 12 7 5 4 4 3 2 3 3 2 2 2 2 5 4 2 10 12 3 6 6 12 24 19 8 4 3 5 5 2 5 7 4 3 4 5 5 4 2 1 2 3 3 2 1 2 3 4 4 6 6 2 1 3 4 3 2 2 5 7 8 10 11 11 12 12 12 13 12 12 12 11 11 10 10 11
13 14 14 15 14 14 11 5 8 10 11 14 13 8 6 5 4 4 1 1 3 2 2 2 1 4 5 2 10 10 3 4 4 9 18 15 6 2 2 4 3 4 6 6 6 9 6 4 3 3 3 2 3 6 7 5 3 3 3 4 5 5 5 5 5 8 6 2 1 3 3 5 5 6 9 8 10 11 11 12 13 11 11 11 11 11 11 11
13 14 14 14 13 13 8 3 8 9 7 8 9 7 5 3 2 3 1 1 2 1 1 1 2 4 4 3 10 7 2 3 3 6 12 11 7 2 1 1 2 7 5 2 3 8 7 3 3 3 3 4 4 7 7 6 5 3 3 2 4 5 7 8 9 9 5 2 2 4 3 2 4 6 7 6 8 10 10 11 11 10 9 9 9 9 9 9
13 13 13 13 12 12 4 2 7 7 4 5 5 3 3 2 2 2 0 1 2 2 3 3 1 6 8 5 9 4 3 2 3 5 9 10 6 2 1 2 1 6 3 1 2 4 4 3 2 3 4 6 7 6 5 5 5 3 3 0 3 5 8 9 8 6 4 2 3 3 4 1 4 5 6 7 8 9 9 10 10 8 8 8 7 7 7 7
12 12 12 12 12 11 3 2 5 5 2 3 3 2 2 2 2 2 1 1 3 2 4 5 2 7 9 7 9 2 1 5 3 6 11 11 7 3 2 4 1 4 2 1 2 3 4 5 6 6 5 7 8 6 6 5 5 3 3 1 5 7 7 6 5 3 3 2 0 3 2 4 0 5 6 7 8 9 8 8 8 7 7 7 7 6 6 6
10 10 11 12 12 11 6 3 4 3 2 1 1 2 3 3 2 1 1 1 2 2 1 3 3 6 7 7 9 5 1 6 3 7 13 11 8 2 4 6 2 4 4 2 3 3 4 6 8 7 7 8 6 6 6 5 4 3 1 3 5 5 4 4 3 2 2 2 1 6 4 5 2 5 5 4 6 6 6 7 6 6 6 6 6 6 5 6
8 9 11 12 10 10 6 4 6 3 2 1 0 2 4 4 2 1 1 2 1 2 1 2 3 5 8 5 5 6 2 4 3 7 12 10 10 5 5 5 1 2 5 6 7 3 2 4 3 5 8 7 6 5 3 3 3 5 5 3 0 1 1 2 2 0 1 1 3 6 5 5 4 4 4 2 2 3 5 6 5 5 5 5 5 5 4 4
7 8 12 11 10 10 5 4 7 4 2 1 3 5 5 3 1 1 2 1 2 2 1 3 3 4 8 4 4 6 5 4 2 5 6 4 8 8 4 1 0 3 4 8 9 3 0 1 2 3 5 4 6 3 0 3 4 6 7 3 3 2 1 1 0 1 2 1 4 5 5 5 4 3 4 3 2 1 4 5 4 5 5 4 4 3 3 2
6 10 14 13 13 13 5 3 6 3 1 2 6 6 4 1 1 3 3 1 2 3 1 3 2 2 6 5 5 7 5 4 4 6 6 4 8 12 6 1 2 1 2 7 7 3 2 1 1 1 2 4 4 1 2 4 6 5 5 4 1 1 1 1 0 0 3 4 3 3 5 6 4 3 5 6 5 2 3 5 5 5 4 3 3 2 1 1
6 11 16 17 16 16 8 2 3 1 2 6 8 4 1 1 3 2 1 2 2 3 3 2 3 4 5 2 4 7 4 3 5 5 5 5 8 11 9 7 5 3 3 6 4 1 3 4 2 1 1 5 6 2 1 1 4 6 7 7 5 3 2 3 4 3 3 4 2 4 7 5 0 5 5 5 6 5 5 6 6 5 4 3 2 3 2 2
7 12 17 19 19 18 12 3 1 2 5 9 6 1 1 3 3 1 2 3 2 3 2 1 3 4 5 2 5 6 2 3 6 4 3 3 6 9 10 10 9 6 4 5 5 4 2 3 3 3 1 6 8 6 4 3 7 9 7 7 6 4 4 4 4 4 4 3 2 3 4 2 2 5 5 6 7 7 7 7 6 6 4 3 2 3 4 4
5 12 18 20 21 20 14 6 2 4 8 8 3 2 5 5 2 1 2 3 2 2 1 2 4 4 2 2 3 4 1 3 6 6 5 3 5 7 7 10 12 7 3 2 3 4 2 2 6 8 4 7 8 6 3 3 4 5 4 4 5 4 4 4 5 5 6 7 6 3 2 2 3 2 4 5 6 6 6 6 5 5 4 3 2 3 5 5
2 8 18 22 22 21 16 8 3 6 8 3 2 5 6 3 1 1 1 2 2 4 2 1 4 2 2 3 1 2 2 3 4 5 7 6 5 5 5 7 11 9 4 2 2 2 1 3 4 4 3 6 7 3 3 4 2 3 2 2 5 4 2 4 4 3 5 7 4 1 1 3 2 3 5 4 5 4 3 3 3 2 1 1 3 5 5 6
4 3 15 23 23 21 16 9 4 5 6 1 6 6 3 1 0 0 1 2 2 4 5 2 2 4 4 2 2 4 2 1 3 3 4 5 6 7 5 4 7 8 5 3 2 2 1 3 3 1 1 5 5 3 4 4 3 2 3 5 5 3 3 3 3 2 3 5 1 1 2 2 3 3 4 5 4 3 3 3 2 0 2 2 3 5 5 6
4 2 11 24 25 21 14 8 7 4 3 4 7 4 1 1 1 1 1 3 1 3 5 2 2 4 4 3 4 8 6 2 4 4 2 2 3 5 7 3 4 7 6 3 0 2 2 1 4 2 3 4 1 2 7 8 5 3 5 6 3 2 1 2 3 2 3 5 3 3 4 2 2 1 3 5 6 6 7 6 3 1 4 4 4 6 7 8
4 5 7 22 25 19 11 7 7 5 4 6 7 4 1 1 1 1 1 2 1 2 3 3 2 2 2 2 3 6 7 4 5 4 3 3 2 4 6 4 2 6 6 4 1 2 2 1 3 1 1 2 1 1 5 8 7 5 4 4 3 0 1 2 2 3 4 5 5 4 3 2 2 1 1 3 5 8 9 7 3 2 6 5 5 8 9 10
3 3 3 18 21 15 12 12 9 6 6 6 4 3 1 1 1 1 1 1 2 1 2 2 2 1 2 3 2 3 4 4 5 3 2 4 3 4 5 3 3 7 7 3 2 2 2 1 2 2 0 1 1 2 3 6 6 5 3 3 3 1 2 2 2 2 3 5 6 6 6 3 1 1 3 4 3 6 7 5 2 2 5 6 7 8 9 10
2 2 1 18 17 8 15 23 15 6 6 5 1 2 1 0 2 1 1 1 1 1 1 1 0 2 2 1 1 2 3 3 3 3 3 4 2 3 5 3 4 7 7 2 2 2 2 1 3 2 1 1 1 5 5 5 5 4 5 6 5 2 0 1 1 0 2 5 5 7 9 3 2 2 3 3 2 1 1 2 2 2 6 8 7 9 10 11
3 2 3 19 15 1 10 19 12 4 4 4 2 3 1 0 1 1 1 1 1 1 1 1 1 2 2 1 1 1 2 3 3 2 2 4 4 3 4 3 3 5 5 1 3 4 2 0 3 3 2 2 3 4 3 4 7 6 5 4 4 2 1 1 1 2 0 4 4 6 9 4 1 3 3 2 1 1 2 2 2 4 7 8 8 10 12 13
4 2 5 17 10 11 12 8 3 3 3 3 2 2 1 1 1 1 0 1 1 0 1 1 2 1 1 1 1 1 2 2 2 2 2 3 5 4 3 2 2 3 3 1 2 3 2 1 2 2 3 3 4 3 1 4 9 8 5 3 1 1 1 3 3 1 1 2 1 5 8 4 2 4 2 2 3 0 3 2 3 6 8 9 10 12 14 14
2 2 7 15 5 10 12 6 1 4 4 1 1 1 1 1 1 0 1 1 1 0 1 1 1 1 1 1 1 1 2 2 2 2 2 2 3 3 2 2 2 2 1 1 1 0 0 1 2 1 2 3 4 3 2 2 4 5 5 3 2 1 1 3 3 2 3 3 2 4 7 3 3 3 2 4 4 1 3 3 6 8 8 10 13 14 16 14
1 2 6 17 9 6 5 4 2 3 2 1 1 2 1 1 2 2 2 2 2 1 1 2 1 2 1 0 1 2 2 1 2 2 1 2 2 2 1 2 3 2 2 2 2 2 1 1 2 2 1 1 2 2 3 3 0 2 2 2 1 1 1 1 1 0 3 3 2 4 6 3 2 4 4 3 3 3 4 5 7 8 9 11 13 14 15 14
2 2 3 15 20 12 4 1 3 4 2 2 3 3 1 1 2 2 1 2 2 1 1 2 1 1 1 0 1 2 3 2 2 2 1 2 1 1 1 3 3 4 3 1 3 3 1 1 2 1 2 2 2 3 2 2 2 1 1 1 1 0 1 1 1 2 3 2 2 5 8 7 3 2 4 3 2 6 9 10 10 10 11 12 13 14 14 13
1 3 1 7 13 10 3 1 2 3 3 2 3 2 2 2 1 1 1 1 1 1 1 1 1 1 1 2 1 2 4 4 2 2 2 2 1 1 2 3 2 4 4 2 2 2 1 1 3 2 2 3 4 5 3 3 5 3 1 1 2 1 1 2 2 3 3 5 6 8 9 13 13 10 5 2 5 10 12 12 12 11 12 13 14 15 14 12
1 2 1 1 3 3 3 3 3 2 1 1 1 1 2 2 1 1 1 0 0 0 1 1 2 2 2 2 1 2 3 3 3 3 1 1 2 1 2 2 2 7 6 1 2 1 1 1 3 2 5 6 7 7 4 2 6 5 1 3 4 3 2 3 4 4 4 6 6 6 10 15 17 15 8 4 9 12 11 13 13 12 14 14 15 16 15 12
2 2 1 1 1 1 2 3 3 3 3 2 1 1 2 2 2 1 0 0 1 0 0 1 4 4 2 1 1 1 2 2 2 2 0 0 2 1 1 1 1 6 5 1 2 1 1 1 2 0 5 8 7 6 3 2 4 4 4 5 4 3 5 5 5 5 5 6 9 12 16 17 18 15 7 5 11 13 13 15 14 15 17 16 17 18 15 10
2 3 0 2 2 1 1 1 1 3 4 3 2 1 1 1 2 1 0 0 1 2 2 2 4 4 1 1 1 1 1 1 2 0 1 1 1 1 0 1 0 2 3 2 3 1 1 1 2 1 6 8 3 2 1 3 4 4 6 6 5 5 7 8 7 6 8 11 13 16 19 19 15 9 6 9 12 13 14 15 15 17 18 17 18 16 12 9
1 3 1 2 3 2 1 1 0 1 3 2 1 1 0 0 1 1 0 1 1 2 3 2 3 2 1 1 1 1 1 1 1 1 3 3 1 1 0 0 0 2 4 3 1 1 1 2 2 1 4 4 2 2 3 6 6 7 7 6 5 7 8 8 7 7 8 11 13 16 18 15 7 3 7 12 13 13 15 16 17 17 16 17 17 12 8 8
5 5 4 4 3 2 1 1 1 1 2 2 1 1 1 0 0 1 1 1 2 2 2 1 2 1 1 1 1 1 2 1 1 1 4 3 0 1 0 0 1 1 3 2 1 3 3 1 1 1 3 2 2 2 7 6 4 6 8 8 8 6 6 7 7 6 7 11 15 14 13 11 7 6 11 14 14 16 17 16 16 16 16 16 13 8 7 8
7 5 4 4 3 2 1 1 1 1 2 2 1 1 0 1 1 1 1 1 0 1 1 0 2 2 1 1 2 2 2 1 1 2 1 1 2 2 2 2 2 1 1 1 1 2 1 0 1 1 3 1 1 5 7 3 2 3 5 7 8 6 6 7 7 8 9 9 11 10 10 12 11 10 14 17 18 18 17 15 17 17 17 13 7 5 7 8
Wind_Direction
41 32 28 29 31 37 39 41 52 59 60 61 62 64 52 27 13 8 10 9 4 1 0 1 357 353 350 350 2 19 78 106 76 60 57 30 2 354 348 345 348 352 349 349 3 12 80 79 22 14 187 179 351 28 145 44 43 219 217 236 242 237 238 205 210 203 316 327 105 149 198 230 209 156 177 168 216 219 201 214 218 208 167 41 48 97 136 147
40 34 33 34 36 36 35 40 52 56 51 52 51 52 45 25 12 6 7 6 0 358 357 359 356 354 352 353 6 31 115 116 71 58 39 12 359 350 349 355 356 355 2 3 20 34 27 61 25 349 213 208 346 205 203 74 284 227 195 243 244 236 250 227 240 221 260 319 60 127 186 229 272 116 164 221 199 183 229 217 197 215 192 141 107 129 144 151
40 37 38 39 40 37 35 37 40 42 33 33 33 27 24 11 0 355 354 354 353 354 356 357 356 355 353 356 1 33 143 154 65 42 12 2 353 352 357 1 6 3 17 15 19 44 63 98 128 243 219 221 98 153 213 169 260 213 213 250 248 261 282 216 240 263 276 321 320 118 137 212 251 92 181 249 260 216 237 240 207 225 212 174 151 147 157 162
39 37 38 37 38 36 34 31 23 14 5 5 1 356 354 347 341 339 338 339 344 348 352 356 353 353 354 353 345 352 179 178 83 6 351 359 351 355 0 8 16 0 8 7 12 61 89 110 110 72 208 219 104 194 219 78 358 165 220 265 341 64 281 165 218 284 50 316 296 86 147 216 164 170 227 265 286 268 266 334 298 283 285 158 157 159 167 169
34 34 34 32 32 30 27 22 14 2 354 349 338 337 331 329 328 326 328 329 336 339 345 354 351 352 354 351 346 323 230 199 70 356 348 359 355 355 359 9 9 355 1 353 22 90 104 119 123 90 192 218 151 202 202 86 25 208 215 303 48 169 287 57 78 320 106 174 213 158 216 280 107 181 256 259 277 336 21 2 340 342 8 95 157 163 171 177
28 28 27 25 23 21 18 12 5 356 349 344 336 332 324 321 319 317 322 322 329 332 337 349 348 349 353 353 2 346 246 199 17 348 350 354 354 358 357 1 3 6 1 337 119 143 130 128 179 158 170 213 186 213 153 113 255 255 227 56 101 209 283 29 81 143 165 196 200 214 324 73 158 198 46 290 310 355 359 346 339 348 6 20 155 162 173 180
20 20 19 15 12 11 10 4 359 353 346 342 336 332 326 320 317 315 317 318 325 324 330 345 347 350 352 356 33 50 77 62 356 339 349 350 350 358 356 356 5 9 345 356 125 154 136 144 194 161 184 212 202 197 116 147 204 249 251 133 141 202 251 348 63 159 207 242 299 25 320 198 270 312 67 19 356 353 347 344 341 347 15 36 129 147 146 132
13 14 10 5 4 2 2 360 356 351 348 344 339 336 329 322 317 313 313 318 323 320 327 342 345 349 353 2 75 77 71 37 347 344 349 349 347 355 355 355 8 10 18 55 96 168 145 159 169 171 215 199 190 176 145 209 199 223 250 105 136 201 264 345 27 218 209 262 8 90 260 254 28 339 55 20 2 348 344 356 9 27 46 50 70 79 82 88
11 8 4 2 359 358 359 356 352 350 349 347 343 337 328 322 313 309 310 314 321 320 328 343 350 350 356 20 170 124 64 1 352 353 347 348 346 351 2 8 20 20 49 56 64 182 179 195 173 191 211 117 184 168 162 237 216 215 258 25 260 290 8 10 347 15 12 257 139 222 262 66 57 332 77 20 360 346 351 23 37 47 52 51 59 60 68 79
8 5 5 4 359 359 358 354 352 350 347 342 335 328 321 315 308 304 303 304 312 313 323 343 350 354 357 1 210 104 69 21 7 360 347 348 343 330 1 13 19 20 56 55 44 38 246 183 154 167 116 108 176 155 168 232 6 95 325 308 284 323 10 3 343 36 347 231 169 237 284 76 59 336 40 4 353 346 11 43 45 51 57 56 61 61 65 72
14 11 9 4 3 2 358 356 354 350 346 337 326 319 310 303 298 297 296 290 296 303 327 348 345 16 39 38 71 63 53 13 7 2 353 352 344 294 355 1 358 355 87 57 61 51 54 138 131 127 159 133 154 156 190 216 64 73 321 280 241 202 86 9 332 12 297 201 163 231 118 93 90 47 8 343 340 348 34 54 52 56 61 61 64 63 62 63
18 11 7 5 6 2 1 360 357 353 346 336 329 320 309 301 292 288 287 270 271 292 322 347 353 45 74 63 57 51 44 354 354 359 2 2 351 290 324 345 343 200 217 42 105 78 112 151 148 114 79 160 162 169 163 148 96 119 278 281 258 205 139 37 5 28 296 164 125 209 169 106 101 55 5 340 336 354 53 62 58 61 62 64 65 63 61 59
13 10 10 10 9 6 6 5 2 360 351 347 350 349 344 337 314 290 281 238 221 266 329 346 5 30 80 67 47 54 35 355 346 357 8 5 357 312 318 339 345 167 182 124 122 105 136 158 163 96 74 192 149 97 144 146 191 189 178 294 296 249 154 42 11 90 213 148 136 227 272 102 103 46 5 353 342 354 64 65 61 67 66 66 67 67 64 59
15 16 16 15 13 9 8 8 8 4 359 4 16 21 24 28 36 38 51 160 181 230 327 343 43 44 68 82 75 73 26 4 4 4 2 359 359 359 338 347 4 151 138 120 113 104 127 140 128 110 80 355 85 135 169 156 186 246 187 194 300 286 82 67 46 324 148 133 181 244 298 100 91 23 5 359 346 18 73 69 67 71 71 71 71 71 69 63
23 22 20 20 19 12 6 7 9 7 5 13 30 35 42 46 46 45 48 94 103 66 55 80 113 111 103 95 109 49 9 11 16 6 357 353 354 355 339 355 69 114 129 113 107 103 108 124 112 109 90 17 152 183 242 211 146 332 287 217 96 314 341 71 69 3 31 95 223 266 300 106 74 16 5 2 1 65 79 73 73 72 74 74 74 74 73 69
25 23 21 20 20 15 8 4 9 10 7 13 38 50 57 52 43 45 50 70 100 86 91 107 97 106 108 85 77 18 6 359 2 3 358 353 349 341 341 356 90 78 126 109 107 102 77 91 76 345 85 147 215 288 286 242 170 97 306 309 339 315 323 8 102 45 16 329 2 338 311 71 59 15 10 12 29 80 82 76 74 71 73 73 73 74 73 70
24 20 18 18 17 15 11 7 11 13 7 10 46 72 70 58 48 56 76 88 97 89 76 67 63 114 88 50 349 360 350 326 342 359 357 356 352 345 354 25 65 61 124 108 100 104 29 62 130 249 77 71 212 307 300 294 316 49 334 310 313 292 309 322 110 56 13 338 356 348 359 53 43 22 21 23 45 77 80 77 74 72 73 71 70 70 68 67
21 17 15 14 12 12 11 9 10 14 9 3 41 99 84 68 58 59 76 99 108 90 65 42 28 126 65 28 355 328 324 313 336 358 357 358 356 347 4 43 67 101 146 131 82 322 351 43 226 175 66 31 25 351 326 341 337 319 322 311 311 286 259 298 323 29 13 349 327 318 55 54 37 30 31 33 52 73 77 77 76 76 74 71 71 69 68 67
19 14 12 11 9 8 8 7 8 15 12 360 5 146 106 82 66 55 53 62 78 58 59 19 4 133 348 357 322 319 317 305 343 2 359 355 350 342 8 24 59 156 186 210 46 14 333 17 98 56 29 9 11 4 339 347 337 306 310 307 312 311 291 302 334 37 9 323 352 37 66 51 35 33 36 41 60 72 77 79 78 77 74 72 72 71 70 68
15 11 9 7 7 5 5 8 8 12 13 5 350 183 86 75 101 46 39 44 59 48 66 46 357 346 335 328 328 339 337 280 10 9 0 354 343 330 9 352 238 78 32 299 1 9 291 60 62 24 3 354 353 350 329 339 327 299 298 295 299 298 309 323 356 46 12 307 72 89 75 57 45 38 40 47 63 70 74 80 80 78 76 74 75 74 72 70
9 6 5 4 4 4 4 7 9 14 19 23 54 115 77 2 61 105 43 47 71 21 54 114 247 314 335 307 340 350 344 226 36 11 3 360 342 314 359 351 27 48 21 298 277 270 346 58 47 5 350 342 346 350 309 4 306 307 303 301 298 295 320 347 24 43 27 343 90 117 82 63 56 46 47 53 60 65 72 82 83 81 79 77 77 76 75 74
3 360 359 0 1 2 2 5 12 18 25 40 67 86 93 126 101 124 143 97 79 5 50 116 292 13 336 289 356 350 331 8 7 6 3 1 7 19 355 12 59 46 359 325 240 174 71 61 24 350 335 288 42 86 273 289 323 333 318 305 321 343 332 343 105 92 19 340 350 124 87 73 72 62 57 59 68 71 73 82 83 81 80 76 76 76 76 74
356 355 357 359 360 359 359 7 13 14 32 52 71 91 106 113 115 127 126 101 87 11 18 34 29 13 6 50 4 350 24 30 353 359 360 356 15 34 359 27 51 47 12 15 35 72 65 43 6 333 289 294 56 48 336 306 22 9 359 341 344 1 346 321 87 350 324 323 289 174 111 96 86 78 70 67 78 82 78 81 78 74 74 73 72 69 69 67
353 354 357 357 357 354 351 12 19 20 44 61 72 93 120 115 111 119 108 102 86 59 38 39 90 14 11 19 356 350 72 52 346 349 356 358 4 330 7 30 8 33 34 14 51 82 70 21 338 296 291 351 52 51 20 354 14 39 43 9 341 343 327 296 309 316 302 169 239 274 175 115 88 81 82 83 87 85 83 84 79 73 74 75 74 67 64 64
355 356 358 355 354 352 348 33 25 24 52 60 64 91 123 114 123 134 122 133 66 42 39 75 134 25 360 331 358 357 157 69 25 343 349 2 356 304 56 23 342 26 27 343 65 83 61 10 303 320 15 39 53 52 27 347 349 36 77 15 318 313 305 299 311 315 300 149 67 330 286 126 103 89 88 103 97 87 86 87 84 79 75 74 71 69 67 65
360 360 357 354 357 358 357 90 20 17 61 54 51 95 133 121 156 166 120 119 59 1 351 8 50 9 358 346 353 336 178 43 27 2 2 8 354 253 58 3 18 27 8 345 77 82 40 358 320 11 41 43 47 53 32 347 333 6 67 193 272 296 301 308 320 321 322 338 25 6 309 283 120 103 96 110 106 97 90 87 89 81 71 71 68 68 68 66
3 0 357 359 6 10 27 128 14 18 67 47 31 64 131 147 144 162 256 86 55 350 342 353 337 357 1 347 335 322 114 334 329 31 11 5 350 251 44 23 55 35 2 214 84 54 6 6 25 28 30 35 34 29 19 351 326 7 66 247 284 304 304 314 314 303 328 308 27 53 336 284 215 106 109 116 111 107 96 87 93 86 74 76 71 69 68 65
3 1 4 7 12 25 53 86 34 45 60 13 4 54 139 148 132 175 240 93 30 345 358 345 333 360 355 340 354 48 96 314 345 12 348 360 4 308 53 39 48 33 351 301 85 65 359 18 28 16 26 36 18 353 349 325 321 10 21 285 305 310 293 294 288 282 325 263 94 42 0 301 329 111 132 146 123 117 109 95 96 94 83 79 76 74 73 67
4 11 15 12 16 27 47 64 51 66 46 346 148 114 139 135 145 202 78 123 340 355 136 330 343 357 340 325 20 46 20 351 40 344 333 6 19 20 66 37 75 78 10 31 76 94 24 27 353 356 27 20 338 340 341 301 332 332 298 283 212 219 231 270 299 270 259 235 44 18 356 332 350 114 143 175 134 119 120 110 99 98 88 80 77 66 68 67
13 24 17 13 20 17 14 45 38 45 30 12 157 143 142 135 171 150 55 35 338 3 183 353 353 325 336 352 40 25 18 25 11 331 345 14 13 33 88 274 278 111 65 61 73 92 81 251 270 16 31 330 304 337 23 259 291 293 288 278 166 157 157 169 143 226 259 54 57 16 7 348 333 91 82 32 15 36 143 137 121 108 92 77 70 55 55 52
28 27 17 16 21 16 11 22 14 17 37 115 147 141 142 125 59 96 68 357 332 352 1 11 354 327 1 27 31 5 12 22 350 360 20 19 14 28 40 338 338 71 84 64 66 90 105 96 69 48 1 308 286 243 165 240 267 290 319 336 330 163 152 187 112 56 337 9 65 44 0 316 292 65 50 27 30 50 136 135 124 111 87 69 50 22 22 322
39 25 19 20 21 18 16 353 349 23 110 138 142 138 168 79 39 69 14 308 322 359 17 4 339 356 355 6 23 358 346 11 9 24 24 21 35 37 37 26 350 335 31 31 23 69 103 81 40 198 173 348 332 330 104 251 326 3 8 3 2 6 16 358 359 2 336 347 73 43 352 307 206 69 35 33 56 67 86 98 100 92 70 56 34 357 317 265
51 29 21 20 20 18 16 18 46 98 138 146 146 75 92 88 49 73 297 324 12 10 359 300 314 329 314 324 18 355 326 12 0 15 22 18 50 56 55 37 4 351 9 3 357 4 101 123 17 18 79 358 360 21 29 6 15 19 14 8 13 14 2 353 355 342 312 321 357 358 340 292 107 69 47 55 72 77 82 84 82 79 62 34 12 341 314 284
66 34 22 18 19 16 16 25 59 126 144 150 158 34 68 74 56 145 314 328 354 342 337 318 308 308 344 40 12 330 5 59 12 12 22 25 43 43 45 33 16 5 334 339 23 6 19 90 20 16 358 348 16 40 1 325 17 28 8 6 32 40 5 341 343 335 312 310 313 310 327 332 336 55 85 85 94 91 89 92 84 82 72 39 359 336 327 309
143 33 20 17 15 13 14 17 39 143 154 149 66 60 68 76 238 211 345 317 313 327 322 303 307 321 50 52 44 347 7 48 26 27 37 41 42 26 12 14 13 5 337 350 39 344 12 86 42 19 338 353 20 33 297 285 14 38 344 358 29 20 335 311 310 305 295 300 301 264 59 37 43 107 118 124 129 117 103 107 100 84 69 38 6 352 340 323
193 27 17 16 13 8 9 17 43 140 169 115 66 63 56 93 287 270 11 331 331 320 307 303 347 10 24 352 16 23 352 32 16 17 57 58 51 32 6 4 14 7 1 6 15 350 10 93 86 77 60 35 17 6 14 352 331 11 9 10 13 325 287 308 299 251 270 291 295 15 352 88 118 135 155 177 183 181 190 182 170 90 338 332 3 356 336 329
176 140 24 16 10 3 6 32 61 111 152 66 77 76 35 116 357 322 5 340 329 301 309 353 24 2 2 340 2 357 336 351 5 357 47 52 48 25 354 1 35 13 2 338 42 56 333 32 91 65 63 76 310 325 53 36 344 9 33 2 333 247 233 350 319 301 313 302 299 328 325 300 292 270 171 202 226 228 223 218 215 347 355 339 341 341 335 337
164 151 44 13 7 6 13 54 69 82 94 60 77 103 71 76 33 317 359 340 250 284 341 42 32 351 354 343 3 349 332 343 355 359 47 23 34 27 353 358 40 17 3 317 316 61 310 302 100 82 28 86 217 260 62 48 35 65 63 339 324 270 294 345 336 320 325 314 303 310 314 295 286 326 327 264 241 230 227 220 221 348 353 333 322 334 336 338
141 152 45 4 7 22 42 69 71 58 75 66 76 106 57 57 84 17 353 328 257 292 22 55 12 24 37 347 345 352 351 9 358 358 44 8 20 56 21 350 327 359 4 330 341 22 294 329 71 106 260 285 3 25 24 40 51 73 69 11 15 15 316 343 351 300 304 308 307 308 308 303 162 198 307 302 265 236 228 222 233 346 348 328 320 331 333 333
54 138 27 356 359 31 55 62 62 38 61 73 79 90 63 157 105 71 310 304 276 332 41 112 334 18 31 1 358 7 10 24 10 19 40 6 4 77 49 17 325 340 344 342 34 6 272 326 355 27 76 267 37 42 20 26 32 23 32 26 8 353 304 301 270 199 308 304 303 306 303 303 133 174 250 276 314 313 249 260 270 314 337 332 324 327 329 330
27 118 350 348 350 73 58 54 53 23 65 77 79 91 77 202 95 70 203 247 291 351 20 101 74 27 11 34 58 7 359 25 33 38 43 25 22 52 55 30 324 321 323 339 35 6 338 312 318 337 30 62 68 43 3 45 59 45 30 23 359 353 21 302 319 99 300 291 295 294 293 297 118 157 208 224 158 68 332 291 270 304 324 329 322 322 325 326
40 103 338 345 15 93 72 54 35 22 77 76 53 85 51 38 93 44 105 193 287 346 64 70 65 41 10 28 23 354 8 30 40 36 53 58 35 21 33 27 299 294 314 341 33 358 331 297 309 345 31 52 68 54 17 87 89 79 54 30 345 326 16 327 332 351 267 265 281 276 276 283 122 148 191 184 158 81 324 276 276 306 316 321 321 322 325 325
43 117 359 356 32 105 72 65 24 31 69 109 46 70 17 32 110 37 27 23 341 334 59 51 56 39 40 23 341 2 30 25 37 41 67 99 61 32 24 345 290 270 312 16 68 344 270 329 329 13 95 110 121 122 174 173 116 82 61 38 347 344 4 323 322 342 299 267 262 278 272 266 129 155 186 160 161 270 323 287 295 308 311 318 322 323 326 324
64 157 6 14 41 120 81 75 119 69 85 150 90 69 37 38 52 23 5 17 15 10 48 50 36 22 46 52 346 39 33 27 66 51 61 92 70 80 87 334 333 356 359 5 359 333 2 15 325 314 60 142 179 204 224 225 260 46 60 46 12 10 313 299 145 344 276 237 230 279 277 289 122 156 179 172 192 277 309 307 309 313 312 318 323 322 325 322
69 121 336 20 43 69 80 61 121 117 124 119 83 49 25 74 53 5 353 36 27 325 30 55 8 5 39 170 121 68 27 12 59 61 74 72 60 114 46 334 340 3 358 335 318 315 346 14 339 354 22 359 325 311 314 320 322 47 107 43 5 57 255 267 242 268 260 233 251 256 269 298 312 202 200 191 240 299 312 314 314 316 316 318 320 321 324 320
64 63 326 8 34 53 72 24 63 104 130 117 86 30 356 71 82 234 218 66 38 357 39 46 326 326 25 15 75 62 27 25 55 69 73 29 1 53 351 322 336 0 4 62 5 331 136 71 5 345 280 288 305 310 347 350 301 287 43 294 276 273 263 260 264 271 291 298 273 246 266 295 306 309 302 278 307 312 314 317 315 316 318 318 320 322 323 318
87 74 16 330 29 41 61 45 28 62 117 137 93 48 5 18 27 194 175 122 120 112 60 59 34 14 21 14 17 43 31 41 56 56 74 327 312 297 309 300 346 345 340 52 22 343 143 46 12 336 271 269 284 295 318 336 288 280 249 220 235 241 214 221 255 274 296 298 278 273 296 300 304 314 325 325 318 314 315 318 317 317 318 317 319 322 322 317
54 124 267 312 46 32 40 41 31 55 62 57 112 83 13 17 27 34 90 115 129 248 253 82 43 27 19 339 340 46 37 66 72 43 119 231 314 308 283 196 356 340 333 18 17 11 109 1 35 165 277 276 276 284 291 291 278 258 221 218 221 225 218 219 242 255 252 259 277 301 308 301 301 312 330 330 319 316 316 317 317 318 318 316 318 321 323 317
57 110 328 339 65 100 31 6 17 62 56 49 80 82 39 63 59 31 318 270 62 12 355 32 28 19 15 305 348 59 24 106 109 91 206 155 311 316 75 153 163 349 2 46 30 33 175 3 81 169 288 287 257 205 251 297 275 226 214 226 227 230 234 233 240 258 258 257 275 297 300 296 302 318 330 321 318 315 313 313 314 317 317 314 316 320 319 312
141 135 123 52 81 87 36 350 340 67 57 38 55 73 82 150 69 71 200 326 21 23 5 21 37 29 36 5 20 60 13 352 103 193 185 174 210 196 153 260 206 22 27 47 21 324 331 7 73 127 286 288 174 176 293 304 275 239 219 218 230 240 242 238 244 264 269 269 284 296 295 295 305 342 322 314 316 314 310 310 312 314 314 313 314 315 310 308
91 116 135 114 81 5 348 46 11 63 59 22 44 116 178 206 56 148 157 354 7 28 12 29 96 113 75 22 5 21 3 319 304 186 181 185 98 104 132 246 206 337 12 44 340 343 10 24 107 83 295 276 131 295 305 306 272 247 236 227 226 230 237 244 251 262 273 287 296 296 294 300 316 329 316 312 314 313 310 310 311 312 314 313 309 302 301 305
95 97 114 103 79 340 349 44 343 78 73 20 51 129 216 55 129 198 153 113 10 27 17 57 151 153 136 10 349 2 6 334 39 71 142 142 86 80 59 79 90 346 19 105 12 1 24 270 137 354 301 259 66 326 311 283 234 258 240 218 213 220 245 253 256 265 272 281 289 291 295 305 313 314 311 313 315 315 312 312 312 311 313 313 301 289 298 301